GW0092 Weather Reports


time (UTC)temp
F
wind
direction
speed
knots
gust
knots
rain 1hr
in
rain 24hr
in
rain mn
in
humidity
%
barometer
mb
20260505024604 60 127 0.9 9.6 0.00 0.00 0.00 88 1013.3
20260505023103 60 176 1.7 5.2 0.00 0.00 0.00 87 1013.3
20260505021553 60 166 1.7 10.4 0.00 0.00 0.00 87 1013.3
20260505020055 60 169 1.7 3.5 0.00 0.00 0.00 88 1013.4
20260505014552 60 165 0.9 4.3 0.00 0.00 0.00 88 1013.6
20260505013052 59 134 0.9 3.5 0.00 0.00 0.00 88 1013.6
20260505011558 59 150 0.0 1.7 0.00 0.00 0.00 88 1013.5
20260505010058 59 141 0.9 2.6 0.00 0.00 0.00 88 1013.4
20260505004558 59 117 1.7 4.3 0.00 0.00 0.00 89 1013.4
20260505003051 59 152 0.0 1.7 0.00 0.00 0.00 88 1013.3
20260505001553 60 156 1.7 3.5 0.00 0.00 0.00 87 1013.3
20260505000059 60 172 0.9 4.3 0.00 0.00 0.00 86 1013.2
20260504234615 60 110 0.9 4.3 0.00 0.00 0.00 85 1012.9
20260504233052 61 143 1.7 6.1 0.00 0.00 0.00 83 1012.9
20260504231601 62 113 1.7 5.2 0.00 0.00 0.00 81 1012.9
20260504230053 64 87 1.7 4.3 0.00 0.00 0.00 78 1013.0
20260504224600 64 105 0.9 9.6 0.00 0.00 0.00 78 1013.0
20260504223056 65 91 1.7 6.1 0.00 0.00 0.00 77 1013.0
20260504221602 65 88 0.9 2.6 0.00 0.00 0.00 76 1013.1
20260504220054 66 96 1.7 4.3 0.00 0.00 0.00 75 1013.0
20260504214603 66 187 1.7 7.0 0.00 0.00 0.00 74 1013.1
20260504213103 66 169 1.7 5.2 0.00 0.00 0.00 76 1013.2
20260504211553 66 84 1.7 7.8 0.00 0.00 0.00 74 1013.2
20260504204634 67 181 3.5 9.6 0.00 0.00 0.00 70 1013.1
20260504203054 68 184 2.6 9.6 0.00 0.00 0.00 69 1013.2
20260504201556 70 146 2.6 4.3 0.00 0.00 0.00 69 1013.0
20260504200057 70 184 2.6 11.3 0.00 0.00 0.00 65 1013.0
20260504194558 71 124 2.6 6.1 0.00 0.00 0.00 65 1013.1
20260504193055 70 180 2.6 7.0 0.00 0.00 0.00 66 1013.1
20260504191552 71 147 1.7 8.7 0.00 0.00 0.00 62 1013.1
20260504190059 71 26 0.9 6.1 0.00 0.00 0.00 62 1013.3
20260504184604 70 16 1.7 6.1 0.00 0.00 0.00 63 1013.4
20260504183059 70 179 0.9 6.1 0.00 0.00 0.00 63 1013.4
20260504181555 71 103 1.7 5.2 0.00 0.00 0.00 61 1013.7
20260504180054 71 265 0.0 4.3 0.00 0.00 0.00 56 1013.7
20260504174553 72 63 4.3 8.7 0.00 0.00 0.00 40 1013.8
20260504173052 71 146 0.9 5.2 0.00 0.00 0.00 56 1014.0
20260504171553 70 150 1.7 6.1 0.00 0.00 0.00 62 1014.1
20260504100103 53 131 0.0 4.3 0.00 0.00 0.00 84 1016.7
20260504081555 53 0 0.9 6.1 0.00 0.00 0.00 82 1017.3
20260504044602 45 0 0.0 0.9 0.00 0.00 0.00 81 1017.2
20260504043054 44 0 0.0 2.6 0.00 0.00 0.00 80 1017.2
20260504041553 42 0 0.0 0.0 0.00 0.00 0.00 78 1017.1
20260504040057 42 0 0.0 0.0 0.00 0.00 0.00 77 1016.8
20260504034615 42 0 0.0 0.0 0.00 0.00 0.00 77 1016.8
20260504033115 42 0 0.0 0.0 0.00 0.00 0.00 77 1016.8
20260504031604 43 0 0.0 0.0 0.00 0.00 0.00 75 1016.6
20260504030054 43 0 0.0 0.0 0.00 0.00 0.00 74 1016.6